Year,Month,Day,Hour,Minute,Value (Times are PST for temperature in C)
2008,05,26,00,00,15.50
2008,05,26,00,01,15.50
2008,05,26,00,02,15.40
2008,05,26,00,03,15.40
2008,05,26,00,04,15.40
2008,05,26,00,05,15.40
2008,05,26,00,06,15.40
2008,05,26,00,07,15.30
2008,05,26,00,08,15.30
2008,05,26,00,09,15.30
2008,05,26,00,10,15.30
2008,05,26,00,11,15.30
2008,05,26,00,12,15.20
2008,05,26,00,13,15.20
2008,05,26,00,14,15.20
2008,05,26,00,15,15.20
2008,05,26,00,16,15.20
2008,05,26,00,17,15.20
2008,05,26,00,18,15.10
2008,05,26,00,19,15.10
2008,05,26,00,20,15.10
2008,05,26,00,21,15.10
2008,05,26,00,22,15.00
2008,05,26,00,23,15.00
2008,05,26,00,24,15.00
2008,05,26,00,25,15.00
2008,05,26,00,26,15.00
2008,05,26,00,27,15.00
2008,05,26,00,28,15.00
2008,05,26,00,29,15.00
2008,05,26,00,30,15.00
2008,05,26,00,31,15.00
2008,05,26,00,32,15.00
2008,05,26,00,33,15.00
2008,05,26,00,34,15.00
2008,05,26,00,35,15.00
2008,05,26,00,36,15.00
2008,05,26,00,37,15.00
2008,05,26,00,38,15.00
2008,05,26,00,39,15.00
2008,05,26,00,40,15.00
2008,05,26,00,41,15.00
2008,05,26,00,42,15.00
2008,05,26,00,43,15.00
2008,05,26,00,44,15.00
2008,05,26,00,45,15.00
2008,05,26,00,46,15.00
2008,05,26,00,47,15.00
2008,05,26,00,48,15.00
2008,05,26,00,49,15.00
2008,05,26,00,50,15.00
2008,05,26,00,51,14.90
2008,05,26,00,52,14.90
2008,05,26,00,53,14.90
2008,05,26,00,54,14.90
2008,05,26,00,55,14.80
2008,05,26,00,56,14.80
2008,05,26,00,57,14.80
2008,05,26,00,58,14.80
2008,05,26,00,59,14.80
2008,05,26,01,00,14.80
2008,05,26,01,01,14.80
2008,05,26,01,02,14.70
2008,05,26,01,03,14.70
2008,05,26,01,04,14.70
2008,05,26,01,05,14.70
2008,05,26,01,06,14.70
2008,05,26,01,07,14.70
2008,05,26,01,08,14.60
2008,05,26,01,09,14.60
2008,05,26,01,10,14.60
2008,05,26,01,11,14.60
2008,05,26,01,12,14.60
2008,05,26,01,13,14.60
2008,05,26,01,14,14.70
2008,05,26,01,15,14.70
2008,05,26,01,16,14.70
2008,05,26,01,17,14.70
2008,05,26,01,18,14.70
2008,05,26,01,19,14.70
2008,05,26,01,20,14.70
2008,05,26,01,21,14.70
2008,05,26,01,22,14.70
2008,05,26,01,23,14.70
2008,05,26,01,24,14.70
2008,05,26,01,25,14.70
2008,05,26,01,26,14.70
2008,05,26,01,27,14.70
2008,05,26,01,28,14.70
2008,05,26,01,29,14.70
2008,05,26,01,30,14.70
2008,05,26,01,31,14.70
2008,05,26,01,32,14.70
2008,05,26,01,33,14.70
2008,05,26,01,34,14.70
2008,05,26,01,35,14.70
2008,05,26,01,36,14.70
2008,05,26,01,37,14.70
2008,05,26,01,38,14.70
2008,05,26,01,39,14.70
2008,05,26,01,40,14.70
2008,05,26,01,41,14.60
2008,05,26,01,42,14.60
2008,05,26,01,43,14.60
2008,05,26,01,44,14.60
2008,05,26,01,45,14.60
2008,05,26,01,46,14.60
2008,05,26,01,47,14.60
2008,05,26,01,48,14.60
2008,05,26,01,49,14.50
2008,05,26,01,50,14.50
2008,05,26,01,51,14.50
2008,05,26,01,52,14.50
2008,05,26,01,53,14.50
2008,05,26,01,54,14.50
2008,05,26,01,55,14.50
2008,05,26,01,56,14.50
2008,05,26,01,57,14.50
2008,05,26,01,58,14.50
2008,05,26,01,59,14.50
2008,05,26,02,00,14.50
2008,05,26,02,01,14.50
2008,05,26,02,02,14.50
2008,05,26,02,03,14.50
2008,05,26,02,04,14.50
2008,05,26,02,05,14.50
2008,05,26,02,06,14.50
2008,05,26,02,07,14.50
2008,05,26,02,08,14.50
2008,05,26,02,09,14.50
2008,05,26,02,10,14.50
2008,05,26,02,11,14.50
2008,05,26,02,12,14.50
2008,05,26,02,13,14.50
2008,05,26,02,14,14.50
2008,05,26,02,15,14.50
2008,05,26,02,16,14.50
2008,05,26,02,17,14.50
2008,05,26,02,18,14.50
2008,05,26,02,19,14.50
2008,05,26,02,20,14.50
2008,05,26,02,21,14.50
2008,05,26,02,22,14.50
2008,05,26,02,23,14.50
2008,05,26,02,24,14.50
2008,05,26,02,25,14.50
2008,05,26,02,26,14.50
2008,05,26,02,27,14.50
2008,05,26,02,28,14.50
2008,05,26,02,29,14.50
2008,05,26,02,30,14.50
2008,05,26,02,31,14.50
2008,05,26,02,32,14.50
2008,05,26,02,33,14.50
2008,05,26,02,34,14.50
2008,05,26,02,35,14.60
2008,05,26,02,36,14.60
2008,05,26,02,37,14.60
2008,05,26,02,38,14.60
2008,05,26,02,39,14.60
2008,05,26,02,40,14.60
2008,05,26,02,41,14.70
2008,05,26,02,42,14.70
2008,05,26,02,43,14.70
2008,05,26,02,44,14.70
2008,05,26,02,45,14.80
2008,05,26,02,46,14.80
2008,05,26,02,47,14.80
2008,05,26,02,48,14.90
2008,05,26,02,49,15.00
2008,05,26,02,50,15.00
2008,05,26,02,51,15.00
2008,05,26,02,52,15.00
2008,05,26,02,53,15.00
2008,05,26,02,54,15.00
2008,05,26,02,55,15.00
2008,05,26,02,56,15.00
2008,05,26,02,57,15.00
2008,05,26,02,58,15.00
2008,05,26,02,59,15.00
2008,05,26,03,00,15.00
2008,05,26,03,01,15.00
2008,05,26,03,02,15.00
2008,05,26,03,03,15.00
2008,05,26,03,04,15.00
2008,05,26,03,05,15.00
2008,05,26,03,06,14.90
2008,05,26,03,07,14.90
2008,05,26,03,08,14.80
2008,05,26,03,09,14.80
2008,05,26,03,10,14.80
2008,05,26,03,11,14.80
2008,05,26,03,12,14.70
2008,05,26,03,13,14.70
2008,05,26,03,14,14.70
2008,05,26,03,15,14.70
2008,05,26,03,16,14.60
2008,05,26,03,17,14.60
2008,05,26,03,18,14.60
2008,05,26,03,19,14.50
2008,05,26,03,20,14.50
2008,05,26,03,21,14.40
2008,05,26,03,22,14.40
2008,05,26,03,23,14.30
2008,05,26,03,24,14.30
2008,05,26,03,25,14.30
2008,05,26,03,26,14.30
2008,05,26,03,27,14.30
2008,05,26,03,28,14.30
2008,05,26,03,29,14.30
2008,05,26,03,30,14.30
2008,05,26,03,31,14.30
2008,05,26,03,32,14.30
2008,05,26,03,33,14.30
2008,05,26,03,34,14.30
2008,05,26,03,35,14.30
2008,05,26,03,36,14.20
2008,05,26,03,37,14.20
2008,05,26,03,38,14.20
2008,05,26,03,39,14.20
2008,05,26,03,40,14.20
2008,05,26,03,41,14.10
2008,05,26,03,42,14.10
2008,05,26,03,43,14.10
2008,05,26,03,44,14.10
2008,05,26,03,45,14.10
2008,05,26,03,46,14.10
2008,05,26,03,47,14.00
2008,05,26,03,48,14.00
2008,05,26,03,49,14.00
2008,05,26,03,50,14.00
2008,05,26,03,51,14.00
2008,05,26,03,52,13.90
2008,05,26,03,53,13.90
2008,05,26,03,54,13.90
2008,05,26,03,55,13.90
2008,05,26,03,56,13.90
2008,05,26,03,57,13.80
2008,05,26,03,58,13.80
2008,05,26,03,59,13.80
2008,05,26,04,00,13.80
2008,05,26,04,01,13.80
2008,05,26,04,02,13.80
2008,05,26,04,03,13.70
2008,05,26,04,04,13.70
2008,05,26,04,05,13.70
2008,05,26,04,06,13.70
2008,05,26,04,07,13.70
2008,05,26,04,08,13.70
2008,05,26,04,09,13.70
2008,05,26,04,10,13.70
2008,05,26,04,11,13.60
2008,05,26,04,12,13.60
2008,05,26,04,13,13.60
2008,05,26,04,14,13.60
2008,05,26,04,15,13.60
2008,05,26,04,16,13.60
2008,05,26,04,17,13.60
2008,05,26,04,18,13.50
2008,05,26,04,19,13.50
2008,05,26,04,20,13.50
2008,05,26,04,21,13.50
2008,05,26,04,22,13.40
2008,05,26,04,23,13.40
2008,05,26,04,24,13.40
2008,05,26,04,25,13.40
2008,05,26,04,26,13.40
2008,05,26,04,27,13.40
2008,05,26,04,28,13.40
2008,05,26,04,29,13.30
2008,05,26,04,30,13.30
2008,05,26,04,31,13.30
2008,05,26,04,32,13.30
2008,05,26,04,33,13.30
2008,05,26,04,34,13.30
2008,05,26,04,35,13.20
2008,05,26,04,36,13.20
2008,05,26,04,37,13.20
2008,05,26,04,38,13.20
2008,05,26,04,39,13.20
2008,05,26,04,40,13.20
2008,05,26,04,41,13.20
2008,05,26,04,42,13.20
2008,05,26,04,43,13.20
2008,05,26,04,44,13.20
2008,05,26,04,45,13.20
2008,05,26,04,46,13.20
2008,05,26,04,47,13.20
2008,05,26,04,48,13.20
2008,05,26,04,49,13.20
2008,05,26,04,50,13.20
2008,05,26,04,51,13.20
2008,05,26,04,52,13.20
2008,05,26,04,53,13.20
2008,05,26,04,54,13.20
2008,05,26,04,55,13.20
2008,05,26,04,56,13.20
2008,05,26,04,57,13.10
2008,05,26,04,58,13.10
2008,05,26,04,59,13.10
2008,05,26,05,00,13.10
2008,05,26,05,01,13.10
2008,05,26,05,02,13.10
2008,05,26,05,03,13.10
2008,05,26,05,04,13.10
2008,05,26,05,05,13.00
2008,05,26,05,06,13.00
2008,05,26,05,07,13.00
2008,05,26,05,08,13.00
2008,05,26,05,09,13.00
2008,05,26,05,10,13.00
2008,05,26,05,11,13.00
2008,05,26,05,12,13.00
2008,05,26,05,13,13.00
2008,05,26,05,14,13.00
2008,05,26,05,15,13.00
2008,05,26,05,16,13.00
2008,05,26,05,17,13.00
2008,05,26,05,18,13.00
2008,05,26,05,19,13.00
2008,05,26,05,20,12.90
2008,05,26,05,21,13.00
2008,05,26,05,22,12.90
2008,05,26,05,23,12.90
2008,05,26,05,24,12.90
2008,05,26,05,25,12.90
2008,05,26,05,26,12.90
2008,05,26,05,27,12.90
2008,05,26,05,28,12.90
2008,05,26,05,29,13.00
2008,05,26,05,30,13.00
2008,05,26,05,31,13.00
2008,05,26,05,32,13.00
2008,05,26,05,33,13.00
2008,05,26,05,34,13.00
2008,05,26,05,35,13.00
2008,05,26,05,36,13.00
2008,05,26,05,37,13.00
2008,05,26,05,38,13.00
2008,05,26,05,39,13.10
2008,05,26,05,40,13.10
2008,05,26,05,41,13.10
2008,05,26,05,42,13.10
2008,05,26,05,43,13.10
2008,05,26,05,44,13.10
2008,05,26,05,45,13.10
2008,05,26,05,46,13.10
2008,05,26,05,47,13.10
2008,05,26,05,48,13.10
2008,05,26,05,49,13.10
2008,05,26,05,50,13.10
2008,05,26,05,51,13.20
2008,05,26,05,52,13.20
2008,05,26,05,53,13.20
2008,05,26,05,54,13.20
2008,05,26,05,55,13.30
2008,05,26,05,56,13.30
2008,05,26,05,57,13.30
2008,05,26,05,58,13.30
2008,05,26,05,59,13.30
2008,05,26,06,00,13.40
2008,05,26,06,01,13.40
2008,05,26,06,02,13.40
2008,05,26,06,03,13.40
2008,05,26,06,04,13.40
2008,05,26,06,05,13.40
2008,05,26,06,06,13.40
2008,05,26,06,07,13.40
2008,05,26,06,08,13.40
2008,05,26,06,09,13.40
2008,05,26,06,10,13.40
2008,05,26,06,11,13.40
2008,05,26,06,12,13.40
2008,05,26,06,13,13.50
2008,05,26,06,14,13.50
2008,05,26,06,15,13.50
2008,05,26,06,16,13.50
2008,05,26,06,17,13.50
2008,05,26,06,18,13.60
2008,05,26,06,19,13.60
2008,05,26,06,20,13.60
2008,05,26,06,21,13.70
2008,05,26,06,22,13.70
2008,05,26,06,23,13.70
2008,05,26,06,24,13.70
2008,05,26,06,25,13.80
2008,05,26,06,26,13.80
2008,05,26,06,27,13.80
2008,05,26,06,28,13.80
2008,05,26,06,29,13.90
2008,05,26,06,30,13.90
2008,05,26,06,31,14.00
2008,05,26,06,32,14.00
2008,05,26,06,33,14.00
2008,05,26,06,34,14.10
2008,05,26,06,35,14.10
2008,05,26,06,36,14.10
2008,05,26,06,37,14.20
2008,05,26,06,38,14.20
2008,05,26,06,39,14.20
2008,05,26,06,40,14.30
2008,05,26,06,41,14.30
2008,05,26,06,42,14.30
2008,05,26,06,43,14.30
2008,05,26,06,44,14.40
2008,05,26,06,45,14.40
2008,05,26,06,46,14.40
2008,05,26,06,47,14.50
2008,05,26,06,48,14.50
2008,05,26,06,49,14.60
2008,05,26,06,50,14.60
2008,05,26,06,51,14.70
2008,05,26,06,52,14.70
2008,05,26,06,53,14.70
2008,05,26,06,54,14.70
2008,05,26,06,55,14.80
2008,05,26,06,56,14.80
2008,05,26,06,57,14.90
2008,05,26,06,58,15.00
2008,05,26,06,59,15.00
2008,05,26,07,00,15.00
2008,05,26,07,01,15.00
2008,05,26,07,02,15.00
2008,05,26,07,03,15.00
2008,05,26,07,04,15.20
2008,05,26,07,05,15.30
2008,05,26,07,06,15.30
2008,05,26,07,07,15.40
2008,05,26,07,08,15.50
2008,05,26,07,09,15.70
2008,05,26,07,10,15.80
2008,05,26,07,11,15.90
2008,05,26,07,12,16.00
2008,05,26,07,13,16.10
2008,05,26,07,14,16.20
2008,05,26,07,15,16.30
2008,05,26,07,16,16.40
2008,05,26,07,17,16.40
2008,05,26,07,18,16.50
2008,05,26,07,19,16.50
2008,05,26,07,20,16.60
2008,05,26,07,21,16.60
2008,05,26,07,22,16.60
2008,05,26,07,23,16.70
2008,05,26,07,24,16.70
2008,05,26,07,25,16.70
2008,05,26,07,26,16.70
2008,05,26,07,27,16.70
2008,05,26,07,28,16.70
2008,05,26,07,29,16.70
2008,05,26,07,30,16.70
2008,05,26,07,31,16.70
2008,05,26,07,32,16.70
2008,05,26,07,33,16.70
2008,05,26,07,34,16.70
2008,05,26,07,35,16.70
2008,05,26,07,36,16.70
2008,05,26,07,37,16.70
2008,05,26,07,38,16.70
2008,05,26,07,39,16.70
2008,05,26,07,40,16.70
2008,05,26,07,41,16.70
2008,05,26,07,42,16.70
2008,05,26,07,43,16.60
2008,05,26,07,44,16.60
2008,05,26,07,45,16.70
2008,05,26,07,46,16.70
2008,05,26,07,47,16.70
2008,05,26,07,48,16.80
2008,05,26,07,49,16.90
2008,05,26,07,50,17.00
2008,05,26,07,51,17.00
2008,05,26,07,52,17.10
2008,05,26,07,53,17.20
2008,05,26,07,54,17.30
2008,05,26,07,55,17.30
2008,05,26,07,56,17.30
2008,05,26,07,57,17.40
2008,05,26,07,58,17.40
2008,05,26,07,59,17.40
2008,05,26,08,00,17.40
2008,05,26,08,01,17.40
2008,05,26,08,02,17.40
2008,05,26,08,03,17.40
2008,05,26,08,04,17.40
2008,05,26,08,05,17.40
2008,05,26,08,06,17.40
2008,05,26,08,07,17.40
2008,05,26,08,08,17.40
2008,05,26,08,09,17.30
2008,05,26,08,10,17.20
2008,05,26,08,11,17.10
2008,05,26,08,12,17.00
2008,05,26,08,13,16.90
2008,05,26,08,14,16.80
2008,05,26,08,15,16.70
2008,05,26,08,16,16.60
2008,05,26,08,17,16.50
2008,05,26,08,18,16.50
2008,05,26,08,19,16.40
2008,05,26,08,20,16.40
2008,05,26,08,21,16.40
2008,05,26,08,22,16.40
2008,05,26,08,23,16.40
2008,05,26,08,24,16.40
2008,05,26,08,25,16.30
2008,05,26,08,26,16.40
2008,05,26,08,27,16.40
2008,05,26,08,28,16.40
2008,05,26,08,29,16.30
2008,05,26,08,30,16.30
2008,05,26,08,31,16.30
2008,05,26,08,32,16.30
2008,05,26,08,33,16.30
2008,05,26,08,34,16.30
2008,05,26,08,35,16.20
2008,05,26,08,36,16.20
2008,05,26,08,37,16.20
2008,05,26,08,38,16.20
2008,05,26,08,39,16.30
2008,05,26,08,40,16.30
2008,05,26,08,41,16.30
2008,05,26,08,42,16.40
2008,05,26,08,43,16.50
2008,05,26,08,44,16.50
2008,05,26,08,45,16.60
2008,05,26,08,46,16.70
2008,05,26,08,47,16.80
2008,05,26,08,48,16.80
2008,05,26,08,49,16.90
2008,05,26,08,50,16.90
2008,05,26,08,51,17.00
2008,05,26,08,52,17.00
2008,05,26,08,53,17.00
2008,05,26,08,54,16.90
2008,05,26,08,55,16.90
2008,05,26,08,56,16.90
2008,05,26,08,57,16.90
2008,05,26,08,58,17.00
2008,05,26,08,59,17.00
2008,05,26,09,00,17.00
2008,05,26,09,01,17.00
2008,05,26,09,02,17.10
2008,05,26,09,03,17.10
2008,05,26,09,04,17.10
2008,05,26,09,05,17.10
2008,05,26,09,06,17.10
2008,05,26,09,07,17.10
2008,05,26,09,08,17.10
2008,05,26,09,09,17.10
2008,05,26,09,10,17.10
2008,05,26,09,11,17.10
2008,05,26,09,12,17.10
2008,05,26,09,13,17.00
2008,05,26,09,14,17.10
2008,05,26,09,15,17.10
2008,05,26,09,16,17.20
2008,05,26,09,17,17.20
2008,05,26,09,18,17.10
2008,05,26,09,19,17.00
2008,05,26,09,20,17.00
2008,05,26,09,21,16.90
2008,05,26,09,22,16.80
2008,05,26,09,23,16.70
2008,05,26,09,24,16.70
2008,05,26,09,25,16.60
2008,05,26,09,26,16.60
2008,05,26,09,27,16.50
2008,05,26,09,28,16.50
2008,05,26,09,29,16.50
2008,05,26,09,30,16.50
2008,05,26,09,31,16.40
2008,05,26,09,32,16.40
2008,05,26,09,33,16.40
2008,05,26,09,34,16.30
2008,05,26,09,35,16.30
2008,05,26,09,36,16.20
2008,05,26,09,37,16.20
2008,05,26,09,38,16.20
2008,05,26,09,39,16.10
2008,05,26,09,40,16.10
2008,05,26,09,41,16.00
2008,05,26,09,42,16.00
2008,05,26,09,43,16.00
2008,05,26,09,44,15.90
2008,05,26,09,45,15.80
2008,05,26,09,46,15.80
2008,05,26,09,47,15.80
2008,05,26,09,48,15.80
2008,05,26,09,49,15.80
2008,05,26,09,50,15.90
2008,05,26,09,51,15.90
2008,05,26,09,52,16.00
2008,05,26,09,53,16.00
2008,05,26,09,54,16.10
2008,05,26,09,55,16.20
2008,05,26,09,56,16.20
2008,05,26,09,57,16.30
2008,05,26,09,58,16.30
2008,05,26,09,59,16.30
2008,05,26,10,00,16.30
2008,05,26,10,01,16.30
2008,05,26,10,02,16.30
2008,05,26,10,03,16.40
2008,05,26,10,04,16.40
2008,05,26,10,05,16.50
2008,05,26,10,06,16.50
2008,05,26,10,07,16.60
2008,05,26,10,08,16.60
2008,05,26,10,09,16.60
2008,05,26,10,10,16.60
2008,05,26,10,11,16.60
2008,05,26,10,12,16.60
2008,05,26,10,13,16.60
2008,05,26,10,14,16.50
2008,05,26,10,15,16.50
2008,05,26,10,16,16.40
2008,05,26,10,17,16.30
2008,05,26,10,18,16.30
2008,05,26,10,19,16.30
2008,05,26,10,20,16.30
2008,05,26,10,21,16.30
2008,05,26,10,22,16.40
2008,05,26,10,23,16.50
2008,05,26,10,24,16.60
2008,05,26,10,25,16.70
2008,05,26,10,26,16.80
2008,05,26,10,27,16.90
2008,05,26,10,28,17.00
2008,05,26,10,29,17.10
2008,05,26,10,30,17.10
2008,05,26,10,31,17.10
2008,05,26,10,32,17.10
2008,05,26,10,33,17.00
2008,05,26,10,34,16.90
2008,05,26,10,35,16.90
2008,05,26,10,36,16.90
2008,05,26,10,37,16.90
2008,05,26,10,38,17.00
2008,05,26,10,39,17.10
2008,05,26,10,40,17.20
2008,05,26,10,41,17.30
2008,05,26,10,42,17.30
2008,05,26,10,43,17.40
2008,05,26,10,44,17.50
2008,05,26,10,45,17.60
2008,05,26,10,46,17.60
2008,05,26,10,47,17.60
2008,05,26,10,48,17.70
2008,05,26,10,49,17.70
2008,05,26,10,50,17.80
2008,05,26,10,51,17.80
2008,05,26,10,52,17.80
2008,05,26,10,53,17.80
2008,05,26,10,54,17.90
2008,05,26,10,55,18.00
2008,05,26,10,56,18.10
2008,05,26,10,57,18.10
2008,05,26,10,58,18.10
2008,05,26,10,59,18.20
2008,05,26,11,00,18.30
2008,05,26,11,01,18.30
2008,05,26,11,02,18.30
2008,05,26,11,03,18.30
2008,05,26,11,04,18.30
2008,05,26,11,05,18.20
2008,05,26,11,06,18.20
2008,05,26,11,07,18.20
2008,05,26,11,08,18.20
2008,05,26,11,09,18.10
2008,05,26,11,10,18.10
2008,05,26,11,11,18.10
2008,05,26,11,12,18.10
2008,05,26,11,13,18.10
2008,05,26,11,14,18.10
2008,05,26,11,15,18.10
2008,05,26,11,16,18.20
2008,05,26,11,17,18.20
2008,05,26,11,18,18.20
2008,05,26,11,19,18.30
2008,05,26,11,20,18.40
2008,05,26,11,21,18.40
2008,05,26,11,22,18.50
2008,05,26,11,23,18.60
2008,05,26,11,24,18.70
2008,05,26,11,25,18.70
2008,05,26,11,26,18.80
2008,05,26,11,27,18.90
2008,05,26,11,28,18.90
2008,05,26,11,29,18.80
2008,05,26,11,30,18.70
2008,05,26,11,31,18.70
2008,05,26,11,32,18.70
2008,05,26,11,33,18.70
2008,05,26,11,34,18.70
2008,05,26,11,35,18.80
2008,05,26,11,36,18.80
2008,05,26,11,37,18.80
2008,05,26,11,38,18.90
2008,05,26,11,39,18.90
2008,05,26,11,40,18.80
2008,05,26,11,41,18.90
2008,05,26,11,42,18.90
2008,05,26,11,43,18.90
2008,05,26,11,44,18.90
2008,05,26,11,45,19.00
2008,05,26,11,46,19.00
2008,05,26,11,47,18.90
2008,05,26,11,48,18.80
2008,05,26,11,49,18.90
2008,05,26,11,50,18.80
2008,05,26,11,51,18.80
2008,05,26,11,52,18.70
2008,05,26,11,53,18.70
2008,05,26,11,54,18.70
2008,05,26,11,55,18.50
2008,05,26,11,56,18.50
2008,05,26,11,57,18.60
2008,05,26,11,58,18.60
2008,05,26,11,59,18.50
2008,05,26,12,00,18.40
2008,05,26,12,01,18.40
2008,05,26,12,02,18.40
2008,05,26,12,03,18.30
2008,05,26,12,04,18.30
2008,05,26,12,05,18.20
2008,05,26,12,06,18.10
2008,05,26,12,07,18.00
2008,05,26,12,08,17.90
2008,05,26,12,09,17.80
2008,05,26,12,10,17.70
2008,05,26,12,11,17.60
2008,05,26,12,12,17.50
2008,05,26,12,13,17.40
2008,05,26,12,14,17.40
2008,05,26,12,15,17.30
2008,05,26,12,16,17.30
2008,05,26,12,17,17.30
2008,05,26,12,18,17.20
2008,05,26,12,19,17.20
2008,05,26,12,20,17.20
2008,05,26,12,21,17.20
2008,05,26,12,22,17.20
2008,05,26,12,23,17.20
2008,05,26,12,24,17.10
2008,05,26,12,25,17.10
2008,05,26,12,26,17.10
2008,05,26,12,27,17.10
2008,05,26,12,28,17.10
2008,05,26,12,29,17.10
2008,05,26,12,30,17.00
2008,05,26,12,31,16.90
2008,05,26,12,32,16.80
2008,05,26,12,33,16.70
2008,05,26,12,34,16.70
2008,05,26,12,35,16.60
2008,05,26,12,36,16.50
2008,05,26,12,37,16.30
2008,05,26,12,38,16.20
2008,05,26,12,39,16.00
2008,05,26,12,40,15.90
2008,05,26,12,41,15.90
2008,05,26,12,42,15.70
2008,05,26,12,43,15.60
2008,05,26,12,44,15.50
2008,05,26,12,45,15.50
2008,05,26,12,46,15.40
2008,05,26,12,47,15.30
2008,05,26,12,48,15.30
2008,05,26,12,49,15.20
2008,05,26,12,50,15.10
2008,05,26,12,51,15.00
2008,05,26,12,52,15.00
2008,05,26,12,53,15.00
2008,05,26,12,54,15.00
2008,05,26,12,55,15.00
2008,05,26,12,56,15.00
2008,05,26,12,57,15.00
2008,05,26,12,58,15.00
2008,05,26,12,59,15.00
2008,05,26,13,00,15.00
2008,05,26,13,01,15.00
2008,05,26,13,02,15.00
2008,05,26,13,03,15.00
2008,05,26,13,04,15.00
2008,05,26,13,05,15.00
2008,05,26,13,06,15.00
2008,05,26,13,07,15.00
2008,05,26,13,08,15.00
2008,05,26,13,09,15.00
2008,05,26,13,10,14.90
2008,05,26,13,11,14.90
2008,05,26,13,12,14.90
2008,05,26,13,13,14.80
2008,05,26,13,14,14.80
2008,05,26,13,15,14.70
2008,05,26,13,16,14.70
2008,05,26,13,17,14.60
2008,05,26,13,18,14.60
2008,05,26,13,19,14.60
2008,05,26,13,20,14.50
2008,05,26,13,21,14.50
2008,05,26,13,22,14.50
2008,05,26,13,23,14.50
2008,05,26,13,24,14.40
2008,05,26,13,25,14.40
2008,05,26,13,26,14.40
2008,05,26,13,27,14.40
2008,05,26,13,28,14.40
2008,05,26,13,29,14.40
2008,05,26,13,30,14.40
2008,05,26,13,31,14.40
2008,05,26,13,32,14.40
2008,05,26,13,33,14.50
2008,05,26,13,34,14.50
2008,05,26,13,35,14.50
2008,05,26,13,36,14.60
2008,05,26,13,37,14.60
2008,05,26,13,38,14.60
2008,05,26,13,39,14.70
2008,05,26,13,40,14.70
2008,05,26,13,41,14.70
2008,05,26,13,42,14.70
2008,05,26,13,43,14.80
2008,05,26,13,44,14.80
2008,05,26,13,45,14.80
2008,05,26,13,46,14.80
2008,05,26,13,47,14.90
2008,05,26,13,48,15.00
2008,05,26,13,49,15.00
2008,05,26,13,50,15.00
2008,05,26,13,51,15.00
2008,05,26,13,52,15.00
2008,05,26,13,53,15.00
2008,05,26,13,54,15.00
2008,05,26,13,55,15.00
2008,05,26,13,56,15.00
2008,05,26,13,57,15.00
2008,05,26,13,58,15.10
2008,05,26,13,59,15.10
2008,05,26,14,00,15.20
2008,05,26,14,01,15.20
2008,05,26,14,02,15.30
2008,05,26,14,03,15.30
2008,05,26,14,04,15.30
2008,05,26,14,05,15.40
2008,05,26,14,06,15.40
2008,05,26,14,07,15.50
2008,05,26,14,08,15.60
2008,05,26,14,09,15.60
2008,05,26,14,10,15.70
2008,05,26,14,11,15.70
2008,05,26,14,12,15.70
2008,05,26,14,13,15.80
2008,05,26,14,14,15.80
2008,05,26,14,15,15.80
2008,05,26,14,16,15.90
2008,05,26,14,17,15.90
2008,05,26,14,18,15.90
2008,05,26,14,19,15.90
2008,05,26,14,20,15.90
2008,05,26,14,21,16.00
2008,05,26,14,22,16.00
2008,05,26,14,23,16.00
2008,05,26,14,24,16.00
2008,05,26,14,25,16.00
2008,05,26,14,26,16.00
2008,05,26,14,27,16.00
2008,05,26,14,28,16.00
2008,05,26,14,29,16.00
2008,05,26,14,30,16.00
2008,05,26,14,31,16.10
2008,05,26,14,32,16.10
2008,05,26,14,33,16.10
2008,05,26,14,34,16.20
2008,05,26,14,35,16.20
2008,05,26,14,36,16.20
2008,05,26,14,37,16.20
2008,05,26,14,38,16.20
2008,05,26,14,39,16.30
2008,05,26,14,40,16.30
2008,05,26,14,41,16.40
2008,05,26,14,42,16.50
2008,05,26,14,43,16.50
2008,05,26,14,44,16.70
2008,05,26,14,45,16.70
2008,05,26,14,46,16.70
2008,05,26,14,47,16.80
2008,05,26,14,48,16.90
2008,05,26,14,49,16.90
2008,05,26,14,50,17.00
2008,05,26,14,51,17.00
2008,05,26,14,52,17.20
2008,05,26,14,53,17.30
2008,05,26,14,54,17.30
2008,05,26,14,55,17.30
2008,05,26,14,56,17.30
2008,05,26,14,57,17.40
2008,05,26,14,58,17.40
2008,05,26,14,59,17.50
2008,05,26,15,00,17.60
2008,05,26,15,01,17.60
2008,05,26,15,02,17.60
2008,05,26,15,03,17.70
2008,05,26,15,04,17.70
2008,05,26,15,05,17.70
2008,05,26,15,06,17.70
2008,05,26,15,07,17.70
2008,05,26,15,08,17.80
2008,05,26,15,09,17.80
2008,05,26,15,10,17.90
2008,05,26,15,11,17.90
2008,05,26,15,12,18.00
2008,05,26,15,13,18.00
2008,05,26,15,14,18.00
2008,05,26,15,15,18.00
2008,05,26,15,16,18.00
2008,05,26,15,17,18.00
2008,05,26,15,18,18.00
2008,05,26,15,19,18.00
2008,05,26,15,20,18.00
2008,05,26,15,21,18.10
2008,05,26,15,22,18.20
2008,05,26,15,23,18.20
2008,05,26,15,24,18.20
2008,05,26,15,25,18.30
2008,05,26,15,26,18.30
2008,05,26,15,27,18.30
2008,05,26,15,28,18.30
2008,05,26,15,29,18.40
2008,05,26,15,30,18.40
2008,05,26,15,31,18.40
2008,05,26,15,32,18.40
2008,05,26,15,33,18.40
2008,05,26,15,34,18.40
2008,05,26,15,35,18.40
2008,05,26,15,36,18.40
2008,05,26,15,37,18.50
2008,05,26,15,38,18.50
2008,05,26,15,39,18.40
2008,05,26,15,40,18.40
2008,05,26,15,41,18.40
2008,05,26,15,42,18.40
2008,05,26,15,43,18.30
2008,05,26,15,44,18.30
2008,05,26,15,45,18.30
2008,05,26,15,46,18.30
2008,05,26,15,47,18.20
2008,05,26,15,48,18.20
2008,05,26,15,49,18.20
2008,05,26,15,50,18.20
2008,05,26,15,51,18.20
2008,05,26,15,52,18.20
2008,05,26,15,53,18.20
2008,05,26,15,54,18.20
2008,05,26,15,55,18.30
2008,05,26,15,56,18.30
2008,05,26,15,57,18.30
2008,05,26,15,58,18.30
2008,05,26,15,59,18.30
2008,05,26,16,00,18.30
2008,05,26,16,01,18.30
2008,05,26,16,02,18.20
2008,05,26,16,03,18.20
2008,05,26,16,04,18.20
2008,05,26,16,05,18.20
2008,05,26,16,06,18.20
2008,05,26,16,07,18.20
2008,05,26,16,08,18.20
2008,05,26,16,09,18.20
2008,05,26,16,10,18.30
2008,05,26,16,11,18.20
2008,05,26,16,12,18.20
2008,05,26,16,13,18.30
2008,05,26,16,14,18.30
2008,05,26,16,15,18.30
2008,05,26,16,16,18.40
2008,05,26,16,17,18.40
2008,05,26,16,18,18.40
2008,05,26,16,19,18.30
2008,05,26,16,20,18.30
2008,05,26,16,21,18.20
2008,05,26,16,22,18.20
2008,05,26,16,23,18.10
2008,05,26,16,24,18.10
2008,05,26,16,25,18.20
2008,05,26,16,26,18.20
2008,05,26,16,27,18.30
2008,05,26,16,28,18.30
2008,05,26,16,29,18.20
2008,05,26,16,30,18.20
2008,05,26,16,31,18.20
2008,05,26,16,32,18.20
2008,05,26,16,33,18.30
2008,05,26,16,34,18.30
2008,05,26,16,35,18.30
2008,05,26,16,36,18.40
2008,05,26,16,37,18.50
2008,05,26,16,38,18.60
2008,05,26,16,39,18.60
2008,05,26,16,40,18.70
2008,05,26,16,41,18.70
2008,05,26,16,42,18.80
2008,05,26,16,43,18.80
2008,05,26,16,44,18.80
2008,05,26,16,45,18.80
2008,05,26,16,46,18.70
2008,05,26,16,47,18.70
2008,05,26,16,48,18.60
2008,05,26,16,49,18.50
2008,05,26,16,50,18.50
2008,05,26,16,51,18.40
2008,05,26,16,52,18.40
2008,05,26,16,53,18.40
2008,05,26,16,54,18.40
2008,05,26,16,55,18.40
2008,05,26,16,56,18.40
2008,05,26,16,57,18.40
2008,05,26,16,58,18.40
2008,05,26,16,59,18.50
2008,05,26,17,00,18.50
2008,05,26,17,01,18.60
2008,05,26,17,02,18.60
2008,05,26,17,03,18.70
2008,05,26,17,04,18.70
2008,05,26,17,05,18.80
2008,05,26,17,06,18.80
2008,05,26,17,07,18.80
2008,05,26,17,08,18.80
2008,05,26,17,09,18.70
2008,05,26,17,10,18.60
2008,05,26,17,11,18.60
2008,05,26,17,12,18.60
2008,05,26,17,13,18.50
2008,05,26,17,14,18.50
2008,05,26,17,15,18.40
2008,05,26,17,16,18.40
2008,05,26,17,17,18.40
2008,05,26,17,18,18.40
2008,05,26,17,19,18.40